Theta_e
319 319 319 318 318 318 318 318 318 318 317 315 314 313 313 313 313 313 313 313 313 313 314 314 314 315 315 315 315 315 315 315 316 316 316 318 318 317 318 318 321 323 323 323 325 326 327 326 326 324 323 325 328 330 330 334 339 346 357 356 349 354 358 360 366 358 357 365 357 353 354 356 359 353 350 353 352 351 353 353 353 354 352 350 349 349 350 352
320 320 319 319 319 318 318 318 318 318 318 317 315 314 313 313 313 313 313 313 313 313 314 314 314 314 314 314 315 315 315 315 315 315 318 319 317 317 318 319 320 321 322 323 325 326 327 328 327 325 324 327 329 330 332 336 340 349 355 349 353 364 355 349 357 352 352 359 355 354 354 353 357 353 351 356 354 353 356 354 353 355 352 350 351 349 351 352
320 321 320 320 319 319 318 318 318 318 318 318 317 315 314 313 313 313 313 313 313 313 314 314 314 314 314 314 315 314 316 318 320 321 323 324 320 318 318 319 319 320 322 323 324 325 327 328 327 325 327 330 329 331 333 336 341 344 345 351 362 359 346 342 348 349 348 353 354 354 355 353 353 352 353 354 354 356 359 356 352 355 353 351 352 350 351 352
315 318 320 321 320 320 319 318 318 318 318 318 317 317 316 314 313 313 313 313 313 314 314 314 314 314 314 315 314 315 322 327 326 328 329 328 325 320 318 319 319 321 321 323 324 326 328 328 328 327 329 331 328 330 332 334 341 340 340 354 357 344 345 346 344 348 348 349 354 354 355 355 353 353 353 351 358 362 357 353 352 354 352 351 352 350 352 353
311 313 316 319 321 321 320 319 319 318 318 318 318 318 317 316 314 313 314 313 314 314 314 314 314 314 314 315 314 316 327 330 327 331 332 330 328 323 320 319 319 321 321 323 324 326 329 329 328 328 329 329 327 328 330 332 337 338 338 343 343 339 346 345 342 348 349 349 353 353 358 357 353 353 353 352 363 364 354 351 352 353 352 350 350 351 352 353
310 310 311 314 317 320 321 320 319 318 318 318 318 318 317 317 315 315 314 314 314 314 314 314 314 314 314 314 315 319 327 329 328 331 332 333 330 323 320 320 319 320 322 324 326 328 330 328 327 327 327 327 327 326 328 330 333 339 341 337 337 341 344 344 344 348 349 350 352 353 356 354 352 353 353 352 357 356 350 350 351 353 353 349 349 351 352 353
310 310 310 311 313 316 320 320 320 319 318 318 318 318 318 317 316 315 314 314 314 314 314 314 314 314 314 314 317 323 327 329 331 332 332 333 330 322 319 320 319 320 323 325 328 330 328 326 327 326 326 327 327 327 328 330 330 336 343 340 340 343 342 343 346 349 349 350 350 352 353 351 354 356 354 353 352 349 350 351 351 353 352 349 350 351 351 352
311 310 311 311 311 313 316 319 320 319 319 318 318 318 318 318 317 316 315 314 314 314 314 314 314 314 314 314 317 325 329 331 333 330 327 327 327 321 318 319 318 320 325 328 330 329 327 326 326 326 326 327 327 326 328 330 330 333 338 341 341 343 343 344 347 349 350 350 350 351 351 351 353 353 352 352 350 349 352 351 351 353 352 350 350 351 351 351
311 311 310 310 311 311 313 317 320 320 319 318 318 318 318 318 317 316 315 315 314 314 313 314 314 313 314 314 319 330 333 332 332 327 322 321 322 320 318 319 319 323 329 332 330 327 326 325 326 327 326 326 327 328 326 328 332 330 332 339 341 342 344 343 347 349 350 350 350 353 353 350 350 352 353 351 348 350 352 351 351 353 351 350 350 350 351 351
311 311 310 310 310 311 312 315 318 320 319 318 318 318 318 318 317 317 315 315 314 314 313 314 314 314 314 315 323 335 334 332 331 328 322 318 319 319 319 319 321 327 331 332 329 326 326 326 327 327 326 327 326 328 327 328 332 327 329 340 342 342 344 344 347 347 349 350 349 356 357 349 347 352 357 352 348 350 353 351 350 353 351 350 350 350 351 351
311 311 311 311 310 311 311 314 317 319 319 319 318 318 318 318 317 317 315 315 314 313 313 314 314 314 314 315 323 332 332 332 332 329 324 320 319 318 319 319 321 328 330 331 328 326 326 326 328 327 328 327 326 328 327 328 328 326 333 341 343 344 344 345 347 346 348 349 347 352 353 345 346 355 357 349 348 351 352 351 350 353 353 350 351 350 351 352
311 311 311 311 310 311 311 313 316 319 319 319 319 318 318 318 318 317 316 315 313 313 313 313 313 314 314 316 323 329 332 333 331 329 327 324 323 320 320 320 322 326 329 329 327 326 326 326 327 327 329 327 328 328 328 329 326 330 338 343 355 361 357 348 346 347 347 349 348 347 347 348 353 357 353 346 348 352 351 351 350 353 353 351 351 350 351 352
311 311 311 311 311 311 311 313 316 319 320 319 319 319 318 318 318 317 316 314 313 313 313 313 314 314 315 319 326 329 331 332 330 330 326 325 326 323 323 324 325 327 329 329 326 326 326 327 327 328 329 328 329 329 328 327 325 332 336 345 362 367 367 353 343 349 349 348 349 343 345 362 368 352 345 347 348 353 353 350 351 354 354 351 351 351 351 351
311 312 311 311 311 311 312 313 316 319 319 319 319 319 319 318 318 317 315 314 313 313 313 313 313 314 316 322 329 329 331 331 330 330 326 325 326 325 325 326 326 327 328 329 328 327 327 327 327 328 329 328 328 328 330 328 329 335 335 349 357 347 363 363 343 349 352 347 348 341 341 360 369 346 337 347 350 352 353 351 352 354 354 353 352 351 351 351
312 313 312 311 312 312 312 314 317 318 319 319 319 318 319 318 317 316 314 313 313 313 313 314 315 316 319 325 329 330 330 330 329 329 327 325 325 324 324 325 325 326 328 329 329 329 328 328 328 328 328 328 328 329 334 333 333 334 330 341 347 341 362 368 344 346 356 350 345 340 343 355 357 340 337 348 352 353 353 351 352 353 353 353 352 352 352 351
314 313 313 312 312 312 312 314 316 318 319 319 319 319 319 318 317 315 314 313 313 313 314 315 318 320 323 326 329 330 329 329 329 329 327 325 325 325 324 323 325 326 327 328 329 329 328 328 328 327 326 327 330 332 335 337 338 337 328 328 336 340 349 353 347 345 351 353 346 341 347 356 347 336 340 353 354 354 352 350 351 351 353 352 352 352 351 351
315 314 313 312 312 312 313 314 316 318 319 319 319 319 318 317 315 313 313 313 313 313 313 315 320 322 324 327 329 330 330 329 328 328 327 326 326 325 324 323 323 324 327 328 329 330 329 329 328 326 326 327 331 335 330 329 333 336 333 329 337 343 338 343 352 346 345 352 350 347 348 352 346 338 344 354 354 353 350 349 350 350 351 352 351 351 351 351
315 314 313 312 312 312 313 315 317 318 319 318 319 318 317 315 314 313 313 314 313 314 314 316 321 324 325 327 329 329 330 329 327 327 327 326 327 326 325 324 322 323 325 326 327 329 327 326 327 328 330 328 332 337 329 324 325 326 329 329 333 340 336 341 350 345 348 353 351 352 351 351 349 342 344 351 354 353 350 349 349 350 351 351 351 351 350 350
315 314 313 313 313 313 315 317 318 319 319 319 319 316 315 313 313 313 314 315 314 315 317 318 322 327 326 326 328 328 329 329 327 327 327 327 326 326 325 323 323 323 322 327 326 324 325 326 328 328 330 332 330 333 330 328 328 325 326 326 327 330 330 340 351 347 348 353 354 355 354 353 350 348 345 347 352 352 351 351 350 351 351 351 351 350 350 349
315 314 313 313 313 314 316 318 318 319 319 319 316 315 315 314 316 319 318 318 316 316 319 320 321 324 325 326 327 328 329 329 328 328 326 327 326 324 325 323 323 323 322 326 325 321 323 327 329 327 328 330 327 327 328 328 329 326 325 326 326 325 326 336 350 349 345 347 353 353 353 353 352 353 344 340 349 350 349 350 349 351 350 351 352 351 351 350
314 314 314 313 314 315 317 318 319 319 318 318 317 321 323 321 324 324 322 321 319 317 318 320 320 321 323 325 326 327 328 329 329 328 326 326 326 324 323 323 323 323 320 318 320 321 324 325 327 329 327 325 324 326 327 326 326 326 326 325 324 325 328 332 340 346 343 341 351 353 353 355 352 350 339 335 349 351 348 349 348 350 350 350 352 351 352 350
314 314 314 314 315 316 318 319 319 319 318 319 322 326 327 325 325 323 322 324 323 322 321 320 322 323 325 325 326 327 327 328 327 329 328 325 326 324 322 323 323 323 319 317 320 324 323 323 325 324 322 321 324 326 326 326 326 325 325 321 323 327 327 331 338 345 343 339 352 355 351 358 357 351 341 335 346 350 347 350 348 349 349 348 350 350 351 351
314 315 315 315 316 317 319 320 319 319 319 321 322 322 323 324 324 322 322 325 326 324 324 324 324 325 326 326 327 327 326 327 326 327 328 325 326 324 321 323 324 323 321 320 323 321 320 323 323 319 319 323 325 326 326 324 322 323 323 319 324 326 322 327 332 341 342 337 347 352 349 365 365 360 353 340 341 347 346 349 349 348 348 348 348 348 349 350
314 315 315 317 318 319 320 320 319 320 320 321 322 322 323 323 323 322 322 324 327 326 324 326 326 326 327 326 326 328 326 326 326 326 327 326 325 323 321 322 323 322 322 323 323 321 321 321 318 317 322 324 322 324 324 322 321 323 323 322 325 327 322 321 325 339 347 339 345 346 341 359 366 360 362 349 341 345 345 346 348 347 348 348 347 347 348 349
314 315 317 318 319 320 320 319 320 320 321 324 325 324 324 323 323 322 323 325 327 327 326 325 326 326 326 326 325 326 326 326 326 327 327 326 325 323 321 320 321 323 324 322 320 322 323 320 317 319 323 322 321 324 323 321 322 322 323 325 326 327 325 325 330 339 340 333 339 336 326 343 362 353 354 357 351 347 345 342 344 346 346 346 346 347 347 347
314 316 318 319 320 320 320 320 320 320 323 326 325 324 324 325 324 322 328 332 327 326 326 324 325 326 325 326 324 324 325 326 325 325 327 326 325 322 321 321 321 323 325 322 321 324 324 321 321 322 323 323 323 324 324 323 321 319 323 326 326 325 325 332 337 335 331 328 332 334 327 333 352 350 346 355 358 353 348 342 341 344 344 345 345 345 346 346
315 317 319 320 320 320 320 320 320 323 326 326 324 324 323 325 324 322 329 331 325 323 324 322 323 324 324 323 323 324 325 326 325 325 326 327 325 322 323 324 322 322 323 321 323 324 323 324 325 324 325 325 324 323 324 324 320 320 324 324 325 322 321 332 338 333 332 329 330 341 339 330 337 348 347 349 354 353 353 349 343 341 342 344 344 343 343 342
316 318 319 320 320 321 322 322 325 327 327 326 326 325 324 325 324 323 327 324 321 321 321 321 322 322 322 322 323 325 325 326 326 325 326 326 325 323 322 324 325 327 324 320 324 324 322 327 326 325 325 323 324 326 324 322 321 324 324 321 323 321 322 331 332 333 333 324 323 336 336 326 336 357 354 346 349 350 354 356 347 340 341 343 342 341 341 340
317 319 320 320 322 324 325 325 328 327 326 327 325 325 326 324 322 325 326 320 317 321 321 320 322 321 321 322 323 323 324 325 326 325 326 325 325 324 323 322 323 326 323 320 327 327 323 325 324 323 324 324 328 328 323 322 323 322 321 322 325 329 335 335 331 333 328 318 322 331 329 324 336 359 354 340 347 354 354 357 346 336 339 341 340 338 338 339
318 320 319 322 325 326 327 327 327 326 327 326 325 327 325 324 330 329 323 319 318 319 320 320 321 321 321 323 323 323 323 324 325 325 324 325 325 323 323 323 321 326 328 324 326 327 322 321 324 324 323 324 326 323 319 320 321 318 321 325 326 336 346 347 348 339 320 320 330 331 331 327 330 349 356 346 352 357 351 353 348 338 336 338 338 337 337 339
320 320 320 325 326 326 329 328 326 327 327 326 327 327 322 328 340 331 320 320 320 319 320 321 321 322 323 324 324 323 323 323 324 325 326 325 325 323 323 325 324 328 335 332 324 326 325 322 326 325 322 322 321 320 317 316 318 320 330 330 321 330 336 336 347 337 317 324 333 330 332 328 325 341 357 351 350 351 348 353 353 342 337 336 336 337 338 339
320 320 323 327 327 327 330 328 328 328 326 327 327 326 329 331 331 328 324 322 321 320 322 321 321 323 324 324 326 325 324 324 323 326 328 326 325 326 325 329 329 323 327 329 323 326 330 327 327 324 323 322 320 323 321 319 323 322 334 335 322 327 327 323 331 327 319 324 327 329 331 326 331 345 349 345 344 343 341 342 345 339 335 336 337 337 338 340
320 322 326 328 328 328 329 329 328 326 326 329 325 329 343 338 326 328 331 325 320 320 322 321 322 325 325 324 327 326 324 324 325 325 326 325 326 327 326 328 328 322 322 324 321 325 330 331 331 326 325 322 319 324 321 320 324 318 324 328 323 325 321 322 330 323 317 324 325 331 331 324 333 341 338 342 340 335 333 332 335 337 336 337 337 338 339 340
322 325 327 328 328 326 328 329 326 326 326 327 327 333 339 333 329 334 334 329 325 321 321 322 323 324 324 325 327 326 324 324 326 326 326 327 326 327 330 326 323 325 327 323 321 324 325 326 330 327 327 323 321 325 322 322 325 320 323 324 321 325 318 319 330 322 318 327 328 329 327 323 329 332 332 337 335 335 336 336 337 337 337 338 336 339 339 338
322 326 327 329 327 325 327 327 325 327 325 326 339 342 333 328 332 336 335 335 331 323 321 323 324 324 323 326 327 324 323 324 326 327 327 327 327 328 332 328 324 328 327 323 323 324 321 323 329 326 324 325 323 322 321 325 324 319 323 321 317 325 326 323 326 325 325 328 327 325 326 332 337 336 337 337 336 339 338 336 340 338 337 338 337 338 338 337
323 323 324 326 325 325 326 325 325 326 324 333 344 340 335 335 334 334 337 336 329 323 321 323 323 323 321 324 327 324 323 324 325 327 326 326 327 328 330 328 326 325 325 328 329 325 320 324 332 330 327 327 324 321 320 321 323 321 320 319 318 322 331 326 321 326 328 325 325 324 328 342 343 335 343 349 346 347 346 342 339 338 339 338 337 338 338 338
329 325 324 325 324 324 324 324 325 323 324 336 341 337 341 342 332 335 343 335 326 324 324 322 322 322 320 321 326 326 324 323 323 325 324 324 324 325 328 328 324 322 325 328 327 325 322 324 332 331 330 330 323 322 324 320 323 327 320 320 321 319 328 328 321 326 327 324 329 329 330 341 340 335 344 351 345 349 358 352 340 338 340 338 338 338 337 339
332 330 329 329 327 323 322 324 324 324 326 335 343 345 346 340 329 332 336 328 324 327 326 323 321 322 321 320 323 325 324 322 323 326 325 323 323 325 327 328 326 323 322 322 325 328 324 323 331 332 330 333 330 327 330 326 325 325 321 323 321 317 323 325 321 322 322 322 330 332 332 337 340 344 347 342 345 353 357 356 350 344 340 337 338 337 336 339
333 332 329 330 327 322 322 323 322 325 329 334 344 347 339 335 334 330 329 326 325 328 328 325 323 323 323 323 323 323 323 322 324 327 324 322 324 326 327 328 327 325 322 322 328 331 327 323 327 334 331 330 335 335 330 329 329 326 324 327 326 325 325 322 320 322 323 328 331 329 328 333 342 355 355 344 352 358 353 360 359 344 338 337 337 337 337 338
332 331 330 329 326 322 322 323 323 328 330 330 340 343 333 332 334 328 327 326 324 328 329 327 330 329 327 328 326 323 325 326 325 326 326 326 326 328 327 326 327 328 324 324 329 332 334 327 324 337 340 329 331 333 328 329 329 326 328 327 326 329 327 322 323 324 326 334 336 329 327 337 350 356 354 349 354 356 351 356 354 339 336 337 336 336 338 338
331 332 331 328 326 323 322 325 326 328 332 332 334 337 332 332 332 327 327 327 326 327 327 328 332 331 329 330 328 327 331 332 329 328 329 328 327 328 328 324 325 328 327 330 334 331 333 333 327 330 333 327 330 332 328 329 328 327 328 326 324 327 328 328 325 324 327 331 335 333 328 339 352 348 349 351 349 345 339 339 342 337 334 336 337 337 338 338
330 332 332 329 328 325 324 328 328 326 332 335 331 330 330 330 328 325 324 326 326 325 326 328 329 329 329 329 329 331 334 333 330 331 330 328 327 327 326 324 324 327 329 332 332 328 334 343 336 329 329 328 329 328 324 324 328 330 327 326 328 327 331 334 326 323 327 326 331 334 328 337 349 342 342 343 336 334 332 331 335 336 336 337 337 338 338 338
330 331 331 331 329 326 326 333 336 335 335 332 328 327 327 325 325 324 323 325 327 325 326 327 326 328 329 328 329 332 332 330 328 329 330 328 328 326 323 326 327 330 333 331 329 329 335 340 334 336 349 344 331 329 330 329 331 332 328 326 327 324 328 335 331 327 327 326 330 329 327 341 348 335 332 334 331 332 332 332 334 334 337 338 337 339 340 339
330 331 332 334 331 326 327 331 335 340 338 331 327 327 326 323 323 324 323 323 325 326 326 326 325 327 327 326 329 330 329 329 328 327 328 328 327 325 323 324 327 333 335 333 331 328 329 334 335 339 345 341 332 334 335 333 332 331 327 327 329 328 327 331 334 332 329 328 330 326 328 343 345 334 334 337 335 335 334 337 339 337 339 339 338 340 340 339
330 331 330 333 333 329 328 327 328 332 335 334 330 327 326 326 323 323 323 322 322 323 325 326 324 325 326 327 327 326 327 330 329 327 328 326 325 325 324 322 325 329 333 333 333 331 331 335 340 340 333 327 331 334 331 329 331 330 330 333 338 337 330 328 331 331 328 329 331 329 332 343 346 343 343 341 340 340 340 342 344 342 342 341 340 342 341 341
332 332 330 332 333 329 327 326 325 327 331 337 336 326 324 327 325 322 322 322 322 321 322 323 323 325 328 330 330 328 327 330 330 328 328 326 326 324 322 323 323 323 327 328 327 337 344 338 345 357 346 333 342 346 336 331 328 326 334 343 346 342 335 331 330 329 332 336 338 338 337 342 349 347 343 342 343 344 342 342 344 344 344 344 344 344 344 344
333 334 332 332 331 331 329 325 323 325 327 332 333 325 321 323 323 324 323 322 322 322 321 321 322 324 327 330 332 328 328 331 330 327 326 325 326 324 320 322 322 319 325 322 319 340 351 333 337 354 346 337 351 352 337 329 326 329 339 347 347 344 343 336 326 325 332 334 336 341 343 346 350 346 343 343 343 342 341 340 342 343 343 344 345 345 345 345
333 332 331 332 332 333 332 325 322 324 326 328 327 323 322 322 322 323 323 322 321 322 324 323 322 323 325 328 330 328 330 334 331 328 328 325 324 325 323 323 321 318 322 320 321 339 346 332 328 333 331 332 341 338 330 326 329 337 345 346 345 349 354 349 337 333 334 331 332 342 348 350 348 344 343 341 340 340 339 338 340 341 341 342 342 343 343 343
332 331 328 329 329 327 325 323 321 321 326 334 334 325 321 323 323 321 321 323 324 322 324 324 322 321 324 331 336 331 328 330 326 326 329 325 323 327 327 325 323 320 320 321 322 327 331 333 332 326 324 327 326 326 329 331 335 342 345 344 344 346 349 349 346 345 342 338 340 344 346 347 344 342 342 339 337 339 337 338 339 339 339 340 340 341 342 342
330 329 324 323 324 322 321 321 322 322 326 333 333 324 320 323 323 320 319 322 325 323 322 324 323 320 321 329 333 327 324 326 324 325 327 324 324 328 328 325 324 321 322 323 323 321 318 327 336 330 321 324 325 327 333 340 345 346 345 344 345 344 345 347 348 350 347 344 345 346 347 347 343 340 340 338 337 338 337 337 338 337 338 338 338 338 338 341
328 327 324 324 325 323 322 320 320 325 328 327 327 326 326 325 321 320 320 319 321 323 321 322 324 323 322 325 326 322 321 324 323 322 324 322 322 325 324 322 321 322 325 324 322 324 321 323 332 328 318 322 325 324 331 341 344 347 347 344 344 346 346 344 343 344 344 345 348 349 348 348 343 338 338 337 337 336 336 336 336 335 336 336 334 335 334 338
327 327 325 326 326 322 321 321 322 326 326 323 323 324 324 322 320 320 322 321 320 321 321 320 320 324 326 326 325 323 321 322 321 320 321 320 320 320 319 320 319 319 324 325 321 324 327 324 326 323 318 323 327 327 337 339 330 337 347 346 343 345 343 341 342 341 340 344 351 351 347 343 339 337 340 340 338 337 336 335 335 335 334 332 332 332 332 334
Wind_Speed
4 4 4 4 4 4 4 4 5 6 7 8 8 8 9 9 9 9 9 10 10 10 10 10 11 11 12 12 12 13 14 14 15 17 16 11 6 9 13 11 9 10 10 9 7 7 8 8 9 10 13 13 9 6 4 4 5 4 2 3 1 2 3 5 6 6 4 3 4 8 11 6 3 8 7 4 4 5 7 4 8 7 3 8 8 14 23 21
6 6 6 5 5 5 5 5 6 6 7 7 8 8 8 9 9 9 9 9 9 9 9 9 9 9 9 10 10 11 12 12 13 14 8 2 4 8 11 11 10 9 9 7 7 7 8 8 9 11 13 11 7 4 2 4 7 3 3 2 3 4 5 6 8 8 4 5 8 10 13 8 5 10 9 4 3 5 5 4 7 5 8 12 12 19 24 22
8 8 8 7 7 7 7 7 6 7 7 7 8 8 8 8 8 8 8 9 8 8 8 7 8 8 8 9 9 9 8 8 8 6 1 2 3 7 8 9 9 9 8 6 7 7 7 8 9 12 12 8 5 4 3 5 7 3 3 2 5 6 4 7 10 11 6 8 12 8 11 8 5 10 9 4 2 2 4 7 7 9 15 16 17 22 24 24
9 10 10 9 9 8 8 8 8 8 8 8 8 8 7 7 8 8 8 8 8 7 6 6 7 7 8 8 7 6 4 3 3 2 3 2 1 4 7 9 9 8 7 6 6 6 6 7 10 12 9 5 2 5 5 6 9 3 4 3 5 4 2 7 12 11 7 10 14 10 8 6 6 9 8 5 3 3 8 14 14 14 19 20 23 26 25 27
8 10 10 11 11 10 10 9 9 8 8 8 8 8 7 7 7 7 7 7 7 6 6 5 6 7 7 6 5 3 2 2 3 3 2 1 2 2 7 9 9 8 6 6 5 4 4 7 10 10 5 2 0 3 4 10 11 2 4 6 4 4 1 6 11 9 8 10 12 11 7 6 7 8 10 9 6 3 8 16 18 16 21 23 26 28 27 29
8 9 10 11 12 12 11 10 10 10 9 9 9 8 8 7 7 7 7 7 6 6 5 5 6 6 6 5 3 1 0 1 2 1 2 3 3 1 6 9 9 8 6 5 4 1 4 8 10 8 3 0 1 2 3 8 11 0 4 7 3 4 3 2 9 9 10 12 12 10 8 7 8 5 10 14 12 6 6 8 17 16 20 23 26 29 29 30
8 8 9 10 11 12 12 12 11 10 10 9 9 9 8 8 7 7 7 6 6 5 4 4 5 5 5 3 1 1 4 2 0 1 4 4 3 1 5 8 8 8 7 5 3 2 5 9 12 9 4 2 3 6 7 7 11 2 2 4 1 3 7 2 9 10 10 12 12 11 8 9 11 4 7 16 19 13 7 4 15 16 19 24 26 29 30 30
8 8 9 10 11 12 12 12 12 11 10 9 9 9 9 8 7 7 7 6 6 5 3 3 4 4 4 2 2 3 5 3 2 3 5 4 2 3 6 8 9 10 8 5 2 4 7 10 13 10 3 2 5 7 8 5 5 2 1 1 3 2 6 2 6 10 10 8 9 11 7 8 12 5 4 14 17 15 10 4 13 17 21 25 26 29 29 30
8 8 9 9 10 11 12 12 12 11 10 10 9 9 9 8 7 7 6 6 5 4 3 2 3 3 3 2 3 3 2 0 3 6 6 2 1 5 7 9 11 11 9 5 3 5 8 11 12 9 2 0 5 6 7 6 1 3 3 4 4 2 3 2 3 7 9 7 9 10 4 5 10 4 4 14 14 12 11 7 13 18 23 26 26 28 29 30
8 8 8 9 10 11 12 12 12 11 10 10 9 9 9 8 7 7 6 5 5 4 2 2 2 2 3 2 1 0 3 2 4 7 7 3 5 6 8 11 12 11 8 6 3 5 9 11 13 10 2 2 8 5 4 6 5 8 6 5 6 4 0 2 1 3 6 7 10 9 3 2 6 5 5 10 10 10 10 10 14 19 25 26 26 28 29 29
8 8 9 9 10 11 11 11 11 10 10 10 9 9 8 8 7 7 6 5 4 3 1 1 2 3 3 3 3 2 3 2 2 6 7 7 7 7 8 10 10 9 7 5 3 5 8 10 13 11 3 6 10 4 3 8 10 7 4 3 5 5 2 1 1 1 3 4 10 9 1 1 5 4 8 10 8 9 11 13 15 21 25 25 26 27 28 29
8 8 8 9 10 10 10 10 11 10 10 10 9 9 8 7 7 7 6 4 4 3 2 2 2 4 4 5 6 2 2 3 0 3 5 7 9 10 10 9 8 8 7 5 3 3 7 9 12 10 5 5 7 2 4 12 10 3 3 2 6 7 4 2 2 2 3 2 6 7 1 3 3 6 10 8 8 10 13 15 17 23 26 24 25 26 28 29
8 8 8 8 9 9 9 10 10 10 10 10 9 8 7 7 7 7 5 4 4 3 2 3 3 4 4 5 5 3 2 3 0 2 4 6 7 9 10 9 8 7 7 5 3 3 5 8 11 10 7 4 3 2 6 10 6 3 2 2 3 7 5 4 2 4 4 2 2 4 2 6 7 11 8 5 10 14 15 17 19 23 26 25 23 23 26 29
7 7 7 7 8 8 9 9 10 10 10 9 8 7 7 6 7 6 4 3 3 3 2 3 3 3 4 4 4 5 4 3 1 2 4 5 7 8 8 7 6 6 5 4 2 3 5 8 11 9 7 5 3 2 4 8 5 2 3 3 3 2 4 7 1 6 5 3 2 4 2 7 8 9 7 9 14 17 18 19 21 24 26 26 25 23 24 26
7 6 7 7 7 8 8 9 10 10 9 8 7 6 6 5 6 5 3 3 3 3 3 3 2 2 4 4 4 6 5 3 1 3 5 6 7 7 6 5 4 4 4 2 1 3 7 8 9 7 6 6 4 2 3 5 4 3 3 3 3 1 5 9 2 8 7 2 2 5 2 7 7 9 4 15 18 20 20 20 22 24 25 26 27 26 25 25
6 6 6 7 7 8 8 9 9 9 8 7 6 5 5 4 4 3 2 3 3 3 3 2 2 2 3 3 4 5 5 3 1 3 6 7 7 6 5 4 3 2 2 1 3 4 7 8 7 6 6 6 4 4 4 4 4 4 3 1 4 2 3 7 4 5 7 2 1 3 2 4 3 7 5 18 20 20 19 19 22 24 26 27 27 27 27 26
5 5 5 6 7 8 8 8 8 8 7 6 5 4 3 2 2 2 2 2 3 3 3 2 2 2 3 2 3 4 4 2 2 4 6 7 6 5 5 4 4 1 2 2 4 4 6 6 5 3 5 5 2 4 5 4 4 4 3 2 3 2 1 3 5 3 5 4 1 2 2 7 4 6 6 15 17 18 18 19 21 23 25 27 27 28 27 28
3 4 5 6 7 7 7 8 8 7 6 5 4 2 2 1 1 1 2 2 2 2 2 3 2 1 3 2 1 1 2 2 5 6 6 6 5 4 4 4 3 2 1 1 3 4 6 5 3 2 4 5 3 5 3 1 0 3 3 3 4 3 2 4 5 3 4 3 2 3 4 12 8 5 3 12 15 17 18 18 18 20 24 25 27 28 28 29
3 4 5 6 6 7 7 8 7 6 5 4 3 3 2 2 2 2 2 3 4 2 1 3 6 2 0 1 0 1 1 5 7 6 6 5 4 3 3 3 3 3 4 1 3 6 6 5 3 3 3 5 2 4 4 6 4 1 2 1 3 5 5 6 5 6 7 4 4 7 7 10 6 4 1 9 16 18 18 17 17 18 20 23 26 28 29 29
2 4 5 5 6 7 8 7 6 6 5 5 5 6 4 3 2 0 2 6 8 6 1 2 7 4 2 2 1 1 3 7 7 6 6 4 3 2 3 2 3 6 5 1 2 5 6 4 3 4 7 7 4 4 5 5 3 1 0 2 5 5 7 7 4 4 6 5 5 8 8 9 7 5 4 8 13 15 17 17 18 20 21 22 24 26 29 29
3 4 5 5 7 7 8 7 6 6 6 8 8 7 3 2 2 2 4 5 6 7 6 4 6 8 5 2 2 1 3 5 6 6 6 5 4 2 1 2 4 4 3 0 0 3 5 3 5 8 9 6 2 5 5 3 1 1 1 3 5 4 7 8 3 4 1 4 4 2 5 10 9 7 6 6 10 14 21 21 20 23 22 22 23 25 27 27
3 4 5 6 7 8 8 7 7 8 9 10 8 5 4 3 3 5 6 4 2 4 6 5 6 8 5 1 2 3 3 3 5 7 7 6 6 4 2 3 5 2 2 2 2 4 5 3 10 9 5 2 2 5 5 3 1 1 1 0 4 4 5 7 4 4 1 3 4 1 4 8 8 7 6 7 12 16 22 24 23 22 19 21 23 24 25 25
4 6 6 7 7 8 8 8 10 11 10 9 6 4 4 2 2 5 6 4 3 2 4 4 5 6 2 3 6 8 6 3 4 7 9 8 7 5 4 4 5 2 1 2 4 2 1 5 7 4 3 3 1 2 5 1 1 2 3 3 3 4 2 4 5 4 2 0 2 3 2 5 6 5 5 6 13 14 14 17 20 19 19 22 23 23 24 25
6 7 7 7 8 9 9 10 12 11 9 7 5 3 2 0 2 4 3 2 2 2 2 4 5 4 2 3 5 8 7 5 4 7 10 11 9 5 4 5 5 1 2 3 7 5 6 8 4 2 3 5 3 2 5 2 3 3 5 5 4 5 4 4 2 2 4 3 1 4 3 5 4 5 6 4 6 11 11 11 16 19 22 23 23 23 24 24
6 8 8 8 9 9 11 12 11 10 8 6 4 2 1 1 1 3 1 1 2 2 1 2 3 2 4 3 5 7 6 7 7 7 10 13 11 5 2 4 4 2 4 4 6 3 8 8 3 2 1 3 3 3 6 7 2 3 5 9 8 6 5 2 1 3 5 4 3 2 2 5 5 5 6 5 4 7 9 9 15 20 21 22 24 28 27 25
7 9 9 9 9 11 12 12 10 9 8 5 2 2 1 1 1 2 2 4 1 3 0 2 1 3 6 4 5 5 1 4 6 8 11 12 12 7 2 2 2 2 4 5 3 2 5 4 2 1 3 5 2 3 5 7 5 2 5 9 8 5 5 4 4 3 2 2 4 2 4 3 6 4 5 5 5 7 6 7 15 21 22 22 24 28 28 27
8 9 9 10 11 10 10 10 10 9 6 4 3 2 1 1 1 2 3 5 1 2 1 3 2 4 6 4 7 7 1 2 3 8 13 12 12 9 3 1 1 2 4 4 2 1 3 4 5 5 6 5 4 4 5 6 7 3 5 6 6 4 5 6 6 4 2 3 4 4 4 2 4 5 6 5 5 7 6 7 13 20 25 25 25 27 27 26
9 9 10 11 11 9 9 10 10 8 6 5 3 2 1 1 2 2 3 4 1 1 1 3 2 3 5 3 8 7 1 1 2 5 13 14 12 8 3 5 5 4 3 4 2 4 2 3 2 2 4 3 4 5 6 8 3 7 5 5 3 3 5 6 6 4 1 2 3 5 3 3 3 6 5 4 3 6 7 8 10 18 25 26 25 25 22 20
9 10 11 11 11 11 10 11 10 8 6 5 3 2 1 2 2 3 4 2 1 1 1 3 3 4 4 3 6 7 3 1 1 3 9 12 11 5 1 6 6 3 1 3 3 6 4 5 5 4 2 4 7 7 6 9 4 4 5 5 3 4 4 4 5 4 3 3 4 6 2 3 4 6 4 3 2 5 7 7 9 16 24 24 22 19 15 14
9 10 11 11 12 12 10 9 9 8 6 4 3 2 1 2 2 4 2 0 1 1 1 2 3 3 3 3 2 4 3 2 2 7 7 6 9 6 1 3 3 4 1 3 1 7 6 6 5 4 6 7 5 3 3 8 5 1 5 3 4 6 5 4 3 4 3 1 6 7 3 4 1 6 3 2 3 5 5 5 8 14 20 21 17 13 11 11
9 10 11 11 12 11 8 7 8 7 5 3 2 0 1 1 3 5 1 2 1 1 0 1 2 1 4 4 1 1 1 2 2 7 5 2 3 3 1 0 0 3 3 5 3 6 7 2 3 5 7 5 2 1 1 1 1 4 4 3 4 5 5 4 5 4 3 3 6 5 1 5 1 5 5 4 6 5 5 6 6 10 16 19 15 12 11 11
9 9 11 12 11 8 5 5 6 5 4 3 1 1 1 1 2 2 1 2 1 2 2 2 2 1 4 3 1 1 1 1 1 4 4 2 2 1 2 3 2 2 3 3 2 6 6 2 3 6 4 3 4 2 3 5 5 4 2 4 4 4 4 3 3 2 1 4 3 3 1 3 3 6 6 6 7 7 7 8 7 9 15 17 14 11 11 12
8 9 11 12 9 4 3 4 4 4 3 3 1 1 3 5 1 2 1 1 1 2 2 2 1 2 4 3 1 2 1 1 1 1 2 2 1 2 3 2 5 3 1 2 1 4 4 5 7 8 3 1 3 4 1 3 2 3 3 3 3 2 3 1 3 2 2 2 2 4 1 1 4 4 4 6 8 9 9 10 10 10 13 14 13 11 11 11
7 9 11 11 7 2 2 4 4 3 4 3 2 1 4 4 1 2 1 2 2 1 0 2 3 3 4 1 3 2 1 1 1 3 2 2 2 2 4 3 3 4 3 2 0 1 2 4 5 3 2 3 0 4 5 4 3 2 4 5 3 3 3 2 3 2 3 2 3 5 1 2 3 3 5 8 10 8 4 5 7 8 9 11 11 10 9 9
5 8 10 10 7 2 2 3 3 4 4 1 2 4 3 0 2 1 2 4 1 0 1 2 5 4 3 3 3 1 2 2 0 4 2 1 2 2 2 3 3 3 4 2 2 1 3 3 6 5 5 3 2 3 4 6 3 1 3 4 0 3 4 1 2 4 3 1 1 3 2 3 4 4 7 7 6 4 4 2 4 5 6 8 10 9 8 9
3 5 8 9 7 5 1 1 1 2 1 1 4 3 1 2 2 2 2 2 1 3 2 4 4 4 2 3 3 2 1 0 1 2 1 1 3 3 3 4 4 5 5 3 3 1 3 2 5 7 6 3 3 2 0 3 1 1 1 1 4 3 6 4 1 1 3 2 1 1 3 5 3 3 6 6 5 6 7 5 5 6 6 7 9 10 9 9
2 3 6 6 7 8 6 3 1 1 2 3 4 0 3 3 3 4 2 2 1 3 6 3 0 2 1 2 2 2 1 1 1 1 1 2 1 3 3 3 4 6 5 3 1 2 3 1 5 5 4 6 7 2 2 3 3 3 1 3 3 2 4 4 1 3 4 1 2 2 2 5 2 1 5 6 5 5 6 6 7 8 8 9 10 10 8 7
4 4 4 4 6 7 7 5 2 1 1 3 2 2 2 2 3 4 4 3 1 3 5 3 2 1 2 2 3 2 3 2 1 1 1 1 1 2 1 3 2 4 6 4 2 1 3 1 6 3 3 7 8 5 3 6 6 5 3 3 2 2 1 1 2 1 1 1 3 3 3 3 3 3 4 2 3 5 5 6 7 9 11 11 12 11 8 6
6 5 4 3 3 3 3 3 3 1 3 3 1 2 1 2 5 7 9 4 2 4 4 1 1 2 2 2 2 1 2 3 2 2 2 2 1 1 3 2 2 4 2 6 2 1 2 2 4 5 3 4 6 5 2 6 6 5 3 2 3 3 3 0 1 2 2 2 2 2 3 2 5 5 4 5 6 5 5 5 5 11 15 14 14 12 9 7
6 5 5 5 4 3 4 3 3 2 2 1 2 2 2 3 7 13 14 5 2 4 2 2 2 3 0 1 1 1 2 2 2 2 1 2 1 1 5 5 3 5 4 5 3 1 2 3 1 6 5 3 3 2 2 0 3 4 4 5 4 2 1 1 1 1 2 3 2 1 1 5 6 4 6 7 8 8 8 7 7 13 18 16 15 14 11 9
5 5 4 4 4 4 4 3 1 2 2 1 2 2 3 3 6 12 15 12 9 8 6 4 4 3 0 2 3 1 2 3 3 3 2 3 2 0 6 9 4 3 4 5 3 2 1 2 1 3 5 2 2 3 2 3 1 4 4 2 1 1 3 3 2 3 1 3 3 4 2 6 6 2 4 6 5 5 7 9 10 15 18 16 15 14 12 10
5 4 3 4 4 4 3 1 1 2 2 1 4 4 5 5 4 8 12 13 11 9 9 6 3 3 2 2 2 2 4 3 4 3 2 2 2 2 8 15 6 3 2 2 1 1 2 3 3 1 2 2 6 6 3 4 2 6 4 2 1 2 4 4 1 3 1 2 1 3 2 5 5 2 3 6 6 9 8 9 13 16 17 17 16 14 12 10
7 6 5 5 5 4 2 3 3 2 1 5 7 4 2 4 5 6 8 9 7 6 7 5 2 4 4 2 2 3 4 4 4 3 1 1 1 2 12 19 11 2 3 2 1 1 2 3 3 2 4 4 5 6 4 1 5 5 4 3 2 1 1 5 4 1 1 1 1 2 0 5 5 6 6 7 10 10 9 8 12 16 17 18 16 13 11 11
10 9 6 7 6 2 2 2 1 2 4 5 6 5 5 7 8 7 6 7 6 3 3 3 4 5 3 2 4 3 2 3 3 3 2 1 2 6 13 19 14 6 4 1 2 0 2 1 2 3 4 6 6 6 6 5 4 2 2 4 4 3 2 2 1 3 1 2 3 3 2 5 5 7 11 15 15 13 13 11 7 11 15 16 15 12 10 10
9 7 5 6 6 3 1 1 1 1 3 3 4 5 5 6 8 10 8 8 10 7 4 2 3 4 4 3 5 5 4 4 3 2 2 2 3 5 11 15 13 9 6 4 1 2 2 2 3 4 3 0 1 2 3 3 3 2 2 5 5 4 4 2 2 3 1 2 3 3 4 5 6 10 13 15 13 12 16 19 17 15 15 14 14 14 13 13
4 3 2 2 4 3 3 4 1 2 2 1 3 4 5 2 4 10 11 8 9 11 9 5 3 3 6 6 5 6 7 5 3 3 2 3 3 5 10 9 10 13 12 11 7 2 4 3 2 5 6 6 5 6 5 1 2 1 3 5 5 5 3 3 3 1 1 2 1 4 5 0 7 11 12 12 11 9 13 19 22 22 22 20 19 21 21 21
3 2 1 1 0 2 3 6 6 2 2 2 3 2 5 3 3 7 9 6 5 7 8 8 7 3 4 5 4 4 5 4 5 3 1 3 3 5 10 4 7 16 15 13 11 4 4 3 1 4 4 6 7 5 3 2 3 2 1 4 4 5 3 4 2 3 1 3 4 7 3 3 5 8 9 9 9 8 11 16 20 22 26 27 28 29 30 30
4 2 2 3 1 1 2 6 8 6 4 5 4 2 4 5 4 4 4 5 6 6 4 6 9 5 2 2 4 2 5 4 4 2 1 3 3 4 8 2 5 15 15 9 9 6 5 1 1 3 2 4 4 3 1 4 4 2 1 3 3 4 5 4 1 3 1 4 4 3 3 5 4 6 7 8 9 8 10 16 20 25 28 30 33 34 34 35
8 6 4 6 5 2 3 4 4 6 7 5 4 4 4 5 5 3 2 2 4 7 5 4 3 5 3 3 5 3 2 1 2 3 2 2 3 2 4 2 2 13 14 6 5 5 3 1 1 2 1 3 3 4 0 6 5 3 4 4 3 4 6 5 2 2 2 4 2 2 8 8 4 5 7 9 10 9 14 22 27 30 30 31 33 34 33 33
8 8 7 10 10 9 10 7 4 5 6 5 4 3 3 4 4 3 3 5 2 4 5 5 4 1 2 4 6 4 3 4 2 3 3 1 3 1 1 2 2 8 11 4 2 4 2 1 1 2 1 4 3 3 3 5 6 4 5 5 3 4 5 5 3 3 3 3 1 3 8 6 4 7 8 10 13 16 21 26 28 28 29 31 32 32 32 31
11 11 11 11 7 9 9 7 5 4 4 5 3 2 2 3 2 1 4 9 7 3 3 3 7 3 2 5 6 2 4 6 8 9 9 7 6 5 3 2 1 4 6 2 1 4 2 0 2 4 2 4 3 3 2 2 5 7 7 6 5 5 4 3 3 2 1 1 3 5 5 1 4 8 8 9 15 20 22 23 24 27 29 30 31 32 33 32
13 12 11 10 5 7 7 4 4 4 2 3 3 2 2 2 3 2 4 8 12 10 6 1 4 2 3 5 5 5 9 9 11 15 16 15 15 14 13 10 6 3 1 0 1 1 2 3 1 2 2 4 5 2 2 2 5 4 3 2 2 3 3 2 3 4 2 1 2 2 1 2 4 5 4 6 11 15 19 22 24 26 27 29 30 31 31 31
Wind_Direction
252 245 235 232 232 235 240 242 249 250 251 251 250 251 254 256 256 257 256 258 260 262 266 267 270 271 274 278 279 282 280 278 273 269 268 256 239 244 244 244 239 236 245 258 275 287 292 303 312 319 320 320 317 298 284 225 174 142 105 91 192 194 197 197 182 190 168 165 186 186 187 176 187 197 194 198 209 195 186 186 171 182 209 184 181 167 167 170
254 250 243 240 236 236 238 240 246 250 255 256 255 254 254 256 256 256 255 256 259 262 267 270 276 276 280 285 286 287 283 279 272 266 266 253 228 230 231 231 230 232 239 251 267 280 289 306 313 318 319 315 305 274 232 183 170 151 101 111 223 203 206 205 178 182 170 155 172 185 193 192 201 192 185 191 202 188 195 200 179 166 155 169 180 172 170 172
254 252 247 243 240 238 239 240 243 248 254 257 258 257 254 254 254 254 253 255 257 261 268 276 282 285 291 294 294 294 291 284 271 264 228 119 212 216 211 212 217 225 231 244 258 271 290 310 316 322 321 306 282 215 179 164 179 202 126 132 241 210 220 224 190 185 182 155 157 177 196 209 236 192 183 191 187 204 219 203 183 161 161 173 181 176 173 175
253 250 249 247 243 241 240 241 242 246 252 256 259 260 258 257 254 254 254 256 259 265 273 285 291 296 302 302 303 300 312 302 231 147 98 102 140 187 185 189 202 211 217 233 248 267 292 315 321 325 320 297 263 190 190 179 181 201 165 191 240 188 203 222 203 192 176 158 160 164 176 218 240 196 191 170 132 275 243 214 199 180 172 173 178 178 176 178
255 251 249 247 245 244 242 243 244 245 249 254 259 261 262 260 258 258 258 261 264 271 281 294 300 306 310 310 310 296 28 49 168 131 71 34 32 145 172 181 193 197 202 219 237 269 310 328 328 326 314 266 273 172 215 196 180 160 217 252 267 168 197 212 200 190 166 154 156 151 160 205 205 196 202 180 165 240 254 224 208 193 182 176 177 180 178 180
260 255 250 247 245 244 243 244 245 246 248 252 258 261 264 263 262 263 262 265 268 277 285 301 308 311 319 316 315 251 177 54 173 146 14 334 350 112 173 182 184 182 187 204 216 307 345 345 342 333 326 232 80 51 354 195 182 114 280 288 281 189 311 221 183 183 168 155 157 165 181 182 167 203 215 202 215 237 322 244 208 199 188 182 180 181 181 184
264 259 255 250 245 243 242 243 243 245 247 250 256 261 265 264 265 266 264 266 270 279 287 306 312 313 324 312 324 262 256 295 275 335 352 332 334 104 171 182 175 172 180 189 179 30 0 0 360 352 2 27 10 15 28 155 175 176 302 332 72 210 319 326 170 178 177 172 176 175 180 180 173 200 215 216 235 241 312 283 202 199 186 183 183 183 186 189
265 261 257 252 247 242 239 240 241 244 246 249 254 259 264 266 266 266 263 267 271 279 288 306 309 311 320 280 310 312 263 290 4 353 350 333 324 135 167 179 170 170 176 169 120 38 13 11 4 358 10 34 6 6 28 100 155 93 289 331 97 210 313 327 170 177 182 187 184 172 177 199 190 178 208 232 247 243 264 251 193 195 182 183 186 186 189 191
265 261 257 253 248 242 236 236 238 240 242 245 250 256 263 265 265 265 262 266 270 276 285 300 303 302 302 260 301 321 212 137 32 18 6 354 137 151 170 174 168 170 170 152 103 37 24 17 4 358 334 346 14 2 21 45 9 339 249 210 138 161 300 287 188 173 182 189 179 177 201 224 197 193 274 251 252 244 246 214 191 192 181 185 189 189 192 194
265 261 257 252 247 242 234 231 233 236 239 242 247 252 259 262 263 264 261 265 268 273 279 288 291 272 267 247 264 118 153 114 45 32 30 72 125 149 165 168 168 165 162 153 111 32 26 18 6 7 9 359 2 346 23 31 318 298 245 180 113 102 322 258 219 170 189 200 193 192 238 254 181 184 272 257 242 236 226 197 193 192 183 187 192 193 195 198
264 261 256 251 245 241 233 229 228 231 235 238 244 249 256 260 261 262 262 266 265 265 263 257 262 248 250 233 208 158 157 163 47 45 56 83 111 129 149 163 163 155 155 153 116 30 23 17 11 15 22 349 346 347 34 355 328 308 208 141 37 47 69 224 224 221 205 221 213 197 228 13 127 174 246 249 232 226 212 194 193 192 186 187 193 197 198 201
260 259 255 250 246 240 232 227 223 226 231 234 240 246 255 259 261 264 264 267 260 254 247 235 248 248 247 237 223 204 177 201 101 65 76 83 102 119 134 149 146 144 154 145 116 32 18 9 7 11 13 354 339 358 352 334 341 7 143 137 345 10 14 249 175 171 188 279 228 188 306 311 171 212 239 242 224 214 202 195 193 192 191 190 194 200 202 206
262 260 256 251 245 237 227 221 218 222 227 230 236 243 255 260 263 266 265 266 255 246 237 233 261 258 247 239 221 201 209 216 177 91 104 91 100 119 130 140 142 146 160 148 120 23 10 360 360 5 13 16 330 322 327 332 8 52 55 84 4 6 339 274 143 138 170 283 256 161 269 282 245 235 228 215 208 199 192 194 193 194 196 197 199 202 204 208
269 262 255 247 239 231 222 216 215 219 224 229 235 243 255 261 265 268 267 262 252 245 235 247 277 262 237 224 210 217 228 232 241 102 122 111 104 120 126 135 144 149 166 162 129 4 4 357 353 357 10 11 323 307 340 352 28 50 14 43 37 21 287 300 23 143 157 260 244 135 249 271 270 271 235 204 202 194 191 192 194 197 199 203 205 207 209 211
272 261 251 240 232 224 216 212 213 217 222 226 231 243 255 263 267 269 265 251 248 245 237 258 275 260 254 232 216 228 229 230 205 123 140 127 109 116 117 122 143 156 172 189 277 355 360 356 354 356 7 5 1 33 21 2 15 34 28 347 339 182 264 310 299 167 167 230 163 132 260 267 283 316 225 190 194 194 195 195 196 201 202 205 209 212 216 218
273 257 242 231 225 217 212 210 210 214 218 222 229 241 254 265 268 271 262 246 248 242 237 274 281 239 255 234 219 229 231 239 182 148 152 130 109 106 101 104 125 160 186 257 307 341 349 353 5 11 18 18 33 50 36 18 353 357 51 333 285 244 283 318 306 197 176 142 102 167 253 265 295 358 155 179 190 193 196 200 200 204 207 208 212 215 219 223
272 248 232 224 218 212 208 206 206 209 211 216 221 231 251 267 268 260 235 233 244 243 244 278 284 227 226 226 219 223 235 239 167 165 151 127 114 100 86 82 93 124 201 248 295 321 335 353 16 9 31 36 52 62 37 16 345 325 27 39 270 237 234 292 304 257 162 126 216 221 261 253 273 27 128 177 191 195 201 207 206 209 212 213 216 219 222 225
266 235 221 216 210 205 200 200 202 203 202 203 207 210 220 199 186 208 210 228 230 243 268 246 211 196 225 225 147 188 244 193 156 162 155 137 119 98 71 56 61 41 132 221 311 351 340 353 46 30 19 5 14 77 78 242 292 313 329 357 313 298 243 244 283 260 150 112 211 212 264 258 272 13 135 185 194 204 213 214 213 216 218 219 221 224 227 229
249 224 214 207 202 195 192 193 193 192 187 181 175 152 135 132 147 183 192 219 213 194 338 201 183 141 121 207 25 326 204 146 145 150 153 136 108 98 76 52 27 39 72 81 358 21 5 0 34 19 337 296 284 129 173 201 179 284 301 241 274 296 281 239 246 231 172 136 220 211 235 259 281 348 258 202 202 212 224 225 225 225 226 226 226 228 232 234
229 209 201 195 190 185 184 184 181 177 165 152 142 125 124 133 136 223 256 242 229 221 255 197 205 239 344 54 51 356 161 156 159 152 145 142 133 118 78 42 19 44 58 102 359 16 32 23 320 260 242 251 243 179 194 194 167 58 47 254 259 264 281 261 249 258 171 156 240 222 231 268 282 291 274 222 213 221 230 231 232 231 231 231 230 232 236 239
202 189 185 184 181 176 174 172 164 155 142 138 133 120 116 125 110 9 314 268 245 233 244 251 235 257 292 13 65 84 154 174 183 170 163 169 163 145 79 35 56 49 359 188 98 0 45 43 259 237 232 238 179 167 189 204 196 329 210 285 290 231 260 266 260 316 206 185 270 238 228 267 271 271 276 224 208 223 227 225 228 231 232 234 235 237 239 244
177 173 169 172 172 166 162 157 147 142 137 138 132 108 79 64 68 22 352 302 263 222 234 247 251 269 285 226 187 174 163 185 203 193 187 181 178 191 185 86 86 125 312 30 61 3 24 271 253 249 237 183 134 168 182 214 233 254 161 339 296 249 266 289 312 342 41 196 271 189 194 259 271 274 278 227 212 226 228 224 228 233 236 239 240 242 243 245
165 161 160 164 163 159 154 145 140 140 141 139 123 96 82 58 352 354 348 310 279 222 227 246 266 286 281 174 191 191 185 194 218 207 197 190 190 195 172 116 91 129 4 72 135 93 358 247 248 249 189 155 238 190 161 209 298 190 153 137 263 266 265 294 315 347 30 125 240 156 184 278 298 308 304 242 228 244 250 238 237 240 244 248 249 250 250 248
156 154 156 157 155 154 147 143 144 145 142 130 116 115 102 33 308 333 324 311 325 277 234 250 269 281 221 173 193 199 208 229 235 208 195 194 186 175 180 148 100 118 255 164 149 156 238 248 234 161 168 183 230 199 149 175 285 242 191 181 229 247 214 226 279 2 3 352 90 94 25 318 326 337 320 299 251 258 267 260 252 248 249 255 260 260 257 255
151 153 153 151 151 152 148 149 149 145 133 110 103 135 64 44 23 353 358 73 353 317 261 243 266 241 192 186 198 203 220 237 242 220 198 196 188 164 163 158 127 216 225 156 137 180 258 268 252 201 179 159 197 224 184 178 231 300 223 204 213 212 199 200 77 60 32 343 299 48 29 295 318 341 298 314 324 267 266 272 264 258 256 258 262 264 263 261
148 152 149 146 149 150 153 153 145 138 127 93 77 137 90 73 57 356 35 64 351 287 273 193 209 191 195 199 196 183 202 250 238 221 203 199 196 173 115 158 149 238 187 151 136 208 261 295 35 98 83 88 83 274 222 161 117 327 248 205 196 165 130 135 145 110 82 266 296 37 135 250 318 335 285 302 318 289 282 274 266 264 263 261 262 268 270 266
147 150 147 145 147 150 154 148 139 135 120 80 82 126 117 69 343 318 29 51 349 257 158 194 173 179 199 199 180 164 88 257 215 212 202 194 195 186 175 236 236 233 173 127 27 272 250 312 10 47 64 60 13 300 232 143 112 249 241 165 159 149 150 170 157 135 182 215 325 10 113 128 315 281 278 304 302 297 293 270 268 265 263 263 264 269 274 273
147 149 147 145 145 144 141 137 135 129 109 89 94 92 72 308 317 335 77 73 257 265 146 201 182 185 202 190 190 188 183 192 148 205 201 189 190 187 204 223 187 201 186 119 255 264 231 278 307 82 51 359 276 245 195 142 136 248 209 135 150 163 161 161 136 129 133 110 315 318 91 111 277 274 305 344 301 292 281 259 261 261 261 264 266 271 277 278
147 148 147 144 141 136 131 132 130 121 111 103 109 112 17 311 328 51 83 87 278 295 178 184 180 205 204 164 207 220 225 227 103 157 182 183 192 182 212 229 185 162 257 120 208 251 236 226 216 157 157 247 239 239 180 153 199 241 143 112 39 56 79 93 107 114 56 58 255 261 150 136 266 284 323 6 285 266 263 259 258 257 260 263 267 273 276 276
147 147 146 143 140 137 131 132 130 125 122 119 141 165 6 343 49 68 67 210 235 277 167 169 191 199 163 121 250 239 209 256 133 136 143 164 195 199 92 233 166 122 331 4 238 253 268 251 228 187 207 218 217 248 184 176 205 61 90 71 14 25 32 37 61 85 72 320 258 249 177 126 290 281 252 206 229 227 228 258 266 262 262 263 266 270 267 269
145 147 147 146 145 141 134 132 136 138 138 143 162 162 4 355 75 86 140 226 230 311 78 174 232 120 126 141 217 253 175 285 121 136 143 111 174 201 94 167 60 70 6 351 317 288 318 308 226 251 245 223 142 74 345 245 357 54 75 58 17 345 10 26 360 42 91 257 271 273 191 118 135 265 246 247 255 234 206 224 245 257 260 262 267 269 265 269
143 149 151 151 150 147 144 145 155 163 164 166 165 1 34 43 42 91 231 282 287 252 203 185 232 165 127 120 222 210 123 299 67 117 148 135 114 187 166 183 186 31 345 314 320 326 330 270 284 318 280 189 128 100 344 353 33 77 101 66 47 337 1 19 330 14 184 236 263 296 345 128 218 247 251 272 273 259 244 244 256 265 263 266 275 276 272 275
144 153 158 158 154 154 172 169 176 188 188 185 204 348 73 78 70 219 245 322 223 215 193 144 124 133 122 97 291 239 105 243 253 72 116 109 49 285 279 223 164 113 337 227 340 355 334 308 333 355 348 184 137 140 184 331 47 118 153 116 109 83 49 318 284 306 274 269 278 283 275 202 272 266 250 270 281 279 276 270 272 277 274 275 282 287 287 285
148 157 164 167 159 137 165 175 187 176 169 182 173 73 68 71 211 211 212 247 221 198 204 116 94 63 82 130 249 216 149 273 194 102 63 48 47 307 300 289 180 125 98 142 253 73 74 325 328 349 327 339 64 170 165 144 119 153 157 129 136 150 139 233 245 225 254 278 289 296 314 166 227 257 264 281 290 296 292 267 268 276 280 281 283 291 298 292
144 164 177 182 175 143 116 151 174 151 153 179 80 76 80 194 252 226 230 246 237 122 344 45 91 71 16 317 285 212 164 256 137 90 52 85 156 206 245 249 210 137 110 135 244 117 95 261 267 278 286 323 343 240 157 108 78 267 157 109 104 190 145 140 187 177 194 201 293 307 267 208 220 265 294 307 312 349 39 1 306 293 283 281 282 290 297 291
127 173 191 197 204 217 201 133 154 164 204 54 63 67 182 221 212 185 205 233 183 144 103 31 65 85 347 309 322 345 84 48 64 74 9 236 187 201 223 231 203 170 151 149 210 183 73 262 282 323 317 344 22 288 203 85 169 258 107 169 251 181 119 111 188 22 64 125 245 326 291 299 323 288 308 350 7 5 17 10 336 306 286 283 282 287 294 292
119 174 195 207 221 227 230 244 264 282 292 72 77 230 232 232 199 186 225 313 243 137 103 81 54 111 184 267 304 324 73 51 345 75 241 298 234 212 249 268 213 198 188 128 183 213 113 262 292 343 327 331 5 23 13 35 104 95 65 229 234 93 90 109 121 10 37 140 273 345 313 303 352 230 315 359 3 325 336 346 324 298 280 276 277 283 290 289
107 147 170 195 214 223 227 237 246 275 355 65 41 273 227 245 224 219 286 321 163 100 82 106 214 179 160 190 262 269 134 170 285 109 148 351 309 210 291 295 235 223 210 154 53 324 104 330 294 296 249 302 347 43 29 3 43 82 141 190 122 88 332 3 84 107 80 143 284 322 324 269 201 220 285 300 248 262 291 316 313 283 267 264 267 274 279 278
100 115 97 116 165 197 198 205 209 190 45 47 331 288 294 267 277 310 328 326 124 83 81 150 137 109 151 164 233 249 109 164 194 133 114 40 336 310 2 320 316 346 212 162 121 330 93 78 286 282 273 311 358 44 29 336 0 39 56 32 37 129 162 168 114 153 141 149 222 306 344 275 228 217 210 225 239 238 251 273 271 259 259 259 260 266 271 271
96 94 70 84 105 133 151 168 177 118 46 351 220 250 331 291 296 338 4 31 82 62 100 204 72 80 177 2 89 136 76 92 129 110 85 37 348 341 19 10 336 1 40 107 93 29 58 73 282 293 326 17 18 40 119 217 355 23 34 20 353 355 83 103 54 59 113 140 178 186 286 268 252 205 185 212 226 212 211 226 242 250 254 257 260 265 270 271
91 79 72 86 92 120 141 149 133 68 60 269 233 239 297 310 308 343 17 50 61 55 75 102 89 94 143 26 27 22 64 56 43 72 91 33 29 88 4 357 307 291 34 57 54 62 124 94 109 307 352 35 250 266 188 197 129 94 87 37 309 345 62 82 3 330 93 126 164 159 196 267 263 209 212 231 236 235 222 216 235 250 253 258 263 264 270 275
88 84 108 114 111 135 130 101 2 57 106 277 309 286 283 322 341 348 13 41 52 45 49 63 81 73 64 64 32 41 75 53 8 51 100 20 63 186 334 350 338 245 78 84 276 246 150 100 84 278 302 242 255 281 269 226 130 92 79 53 113 94 86 112 178 294 26 76 140 140 161 263 269 317 281 271 292 301 279 240 243 255 257 261 266 269 275 282
89 100 136 143 139 147 85 18 346 10 351 298 317 321 330 4 14 8 15 30 34 30 35 32 23 51 52 46 52 58 63 54 32 47 111 298 34 348 350 6 19 27 56 72 282 350 102 80 51 308 303 312 301 317 334 29 74 62 16 20 52 4 107 150 163 179 147 159 154 107 271 267 294 338 343 344 347 337 321 284 264 270 273 274 280 288 291 295
95 97 127 150 165 183 47 53 336 327 306 316 345 12 42 46 35 26 28 29 24 32 54 22 7 33 34 38 69 57 40 76 60 27 61 92 339 344 2 19 31 36 34 13 247 123 83 88 72 46 358 350 347 346 348 359 32 52 342 345 338 331 31 121 115 53 21 224 147 126 251 256 285 341 5 9 11 11 9 8 339 314 312 307 311 323 319 315
100 87 102 146 182 222 358 169 194 273 293 335 20 13 21 42 39 42 58 55 42 49 65 16 358 22 21 41 67 33 22 74 84 30 37 349 306 331 358 16 28 27 12 357 259 181 108 107 120 105 105 122 319 278 278 316 344 356 342 338 333 342 11 33 61 52 341 252 145 150 228 261 312 352 6 6 8 12 13 22 27 17 7 356 356 9 6 353
105 85 73 145 198 232 282 290 275 200 238 15 57 23 22 41 19 36 56 61 43 48 55 31 342 12 26 32 50 27 14 26 45 75 49 335 290 317 338 357 23 19 17 26 31 106 104 66 124 131 145 178 192 215 228 182 80 1 327 332 335 329 342 85 94 26 237 195 215 222 205 272 343 350 0 0 5 12 14 24 29 32 37 40 39 40 38 32
81 84 87 101 140 290 327 5 29 114 196 97 94 11 14 32 355 21 43 53 39 49 59 33 13 36 40 30 52 31 3 1 19 50 25 313 252 296 328 342 30 20 24 29 23 56 100 39 58 131 154 199 190 206 233 112 116 155 295 322 331 333 357 94 122 286 210 137 276 267 203 89 352 345 356 355 359 10 17 26 31 35 42 47 50 48 46 44
90 108 102 98 99 286 7 19 22 47 63 63 79 33 17 40 45 28 29 42 37 37 58 35 19 28 53 82 104 44 354 2 10 1 299 326 307 320 344 6 46 26 30 30 23 61 116 114 196 152 216 245 227 252 241 115 112 109 34 336 347 22 42 91 156 282 177 167 245 282 80 77 12 349 356 358 360 7 19 29 38 40 39 42 45 45 42 41
109 112 87 84 93 64 35 5 4 51 53 41 51 46 30 41 40 7 335 31 24 12 46 88 13 357 13 68 109 103 13 36 347 316 266 338 344 338 347 323 22 26 27 27 22 53 108 189 226 163 236 288 298 310 4 124 120 63 33 8 21 60 62 77 76 338 80 137 187 85 80 78 48 5 4 9 13 26 38 40 41 39 36 38 40 39 37 37
114 118 105 95 80 38 25 22 28 58 46 35 52 35 27 53 40 5 18 48 38 345 34 109 168 191 72 69 88 117 181 174 188 262 230 289 331 271 285 252 253 7 14 21 11 20 48 305 298 95 40 307 323 32 73 128 130 91 44 18 30 67 51 45 23 354 53 73 1 50 74 74 32 13 21 32 40 45 43 40 39 37 36 38 38 36 35 35
119 122 117 107 71 11 13 19 23 57 40 20 37 3 5 22 356 9 43 43 55 41 16 140 171 166 70 62 74 98 235 209 206 231 232 232 249 237 226 233 227 359 360 2 354 5 44 322 337 71 67 279 289 54 62 116 91 69 40 14 21 48 49 42 13 2 85 94 358 26 62 62 337 353 13 37 46 48 43 36 33 33 34 35 32 30 31 33
114 115 109 106 76 5 6 5 14 62 68 351 2 16 20 1 345 75 84 36 40 45 24 72 163 125 42 38 25 326 295 273 258 263 262 254 252 248 247 257 266 287 312 68 358 320 122 126 174 118 129 259 281 355 37 53 45 23 328 325 59 81 97 99 31 8 23 107 87 77 167 264 322 349 9 25 34 45 46 36 28 25 28 32 30 25 25 28